DIBK

Bouaké Airport

Airport
ICAO code
DIBK
IATA Code
BYK
Summary
ICAO Region
AFI
ICAO Territory
Location

Bouaké, Gebeke Region

Serving
Bouaké
Elevation
1231 ft
Coordinates
7° 44' 20" N , 5° 4' 25" W
KCC
Metar
DIBK 222300Z 36002KT 8000 NSC 31/04 Q1011

Bouaké Airport is an airport located in Bouaké, the second largest city in Côte d'Ivoire.

Climatology

Tropical Savannah climate (Köppen climate classification Aw)

Runways

Designator Length Width Surface Rops
3/21 3300 45 ASP No/No

Airport map

Aerial View

SKYbrary Partners:

Safety knowledge contributed by: